This demonstration page uses our WeatherBlox Daily Observations layout. Learn more.

Left ArrowRight Arrow

38.80484, -77.04692

Hourly Observations for September 6, 2021

Temp ( °F °C ) Dew Point ( °F °C ) Humidity (%) Winds ( mph kmh ) Pressure ( in mb ) Visibility ( mi km ) Precip ( " mm )
12:52 am 00:52 Cloudy 73 22.8 69 20.6 87 87 S 8 13 29.85 1011 10 16 N/A
1:52 am 01:52 Cloudy 73 22.8 68 20 84 84 SSW 5 7 29.85 1011 10 16 N/A
2:52 am 02:52 Cloudy with Light Rain 73 22.8 68 20 84 84 WSW 5 7 29.85 1011 10 16 0.00 0.00
3:52 am 03:52 Cloudy 73 22.8 67 19.4 81 81 WNW 3 6 29.85 1011 10 16 0.01 0.25
4:52 am 04:52 Cloudy 73 22.8 67 19.4 81 81 N N/A 29.85 1011 10 16 N/A
5:52 am 05:52 Mostly Cloudy 72 22.2 66 18.9 82 82 N N/A 29.86 1011 10 16 N/A
6:52 am 06:52 Mostly Cloudy 71 21.7 66 18.9 84 84 W 5 7 29.88 1012 10 16 N/A
7:52 am 07:52 Mostly Cloudy 73 22.8 65 18.3 76 76 WNW 6 9 29.89 1012 10 16 N/A
8:52 am 08:52 Partly Cloudy 76 24.4 64 17.8 67 67 N N/A 29.91 1013 10 16 N/A
9:52 am 09:52 Mostly Sunny 77 25 60 15.6 56 56 NW 10 17 29.92 1013 10 16 N/A
10:52 am 10:52 Mostly Sunny 79 26.1 59 15 50 50 NW 13 20 29.94 1014 10 16 N/A
11:52 am 11:52 Mostly Sunny 82 27.8 57 13.9 42 42 NNW 12 19 29.93 1013 10 16 N/A
12:52 pm 12:52 Mostly Sunny 83 28.3 55 12.8 38 38 N 14 22 29.91 1013 10 16 N/A
1:52 pm 13:52 Mostly Sunny 84 28.9 54 12.2 36 36 NNW 16 26 29.90 1013 10 16 N/A
2:52 pm 14:52 Partly Cloudy 85 29.4 54 12.2 35 35 VRB 7 11 29.88 1012 10 16 N/A
3:52 pm 15:52 Partly Cloudy 85 29.4 53 11.7 33 33 W 10 17 29.87 1012 10 16 N/A
4:52 pm 16:52 Mostly Cloudy 86 30 54 12.2 33 33 W 10 17 29.86 1011 10 16 N/A
5:52 pm 17:52 Partly Cloudy 85 29.4 53 11.7 33 33 W 12 19 29.87 1011 10 16 N/A
6:52 pm 18:52 Partly Cloudy 83 28.3 53 11.7 36 36 W 8 13 29.88 1012 10 16 N/A
7:52 pm 19:52 Partly Cloudy 80 26.7 55 12.8 42 42 WSW 7 11 29.88 1012 10 16 N/A
8:52 pm 20:52 Partly Cloudy 77 25 56 13.3 48 48 WSW 5 7 29.91 1013 10 16 N/A
9:52 pm 21:52 Partly Cloudy 75 23.9 58 14.4 55 55 WSW 5 7 29.93 1013 10 16 N/A
10:52 pm 22:52 Partly Cloudy 73 22.8 58 14.4 59 59 N N/A 29.94 1014 10 16 N/A
11:52 pm 23:52 Partly Cloudy 72 22.2 61 16.1 68 68 N N/A 29.96 1014 10 16 N/A

Powered by AerisWeather